User: anonymous   Login
Location: Lake Arresoe
(56.0000°N, 12.5000°E)
Time: 15:22:35
(UTC+02:00)
Language:

CUTE-I - Orbit

View from above orbital plane
View from above orbital plane
View from above satellite
View from above satellite

Ground track
Ground track

The orbit data is extracted from the following two-line orbital elements,

1 27844U 03031E   24170.00445413  .00000522  00000-0  24983-3 0  9995
2 27844  98.6761 177.0220 0010628 137.0954 223.1055 14.23279294 87937
Epoch (UTC): 18 June 2024 00:06:24
Eccentricity: 0.0010628
inclination: 98.6761°
perigee height: 806 km
apogee height: 822 km
right ascension of ascending node: 177.0220°
argument of perigee: 137.0954°
revolutions per day: 14.23279294
mean anomaly at epoch: 223.1055°
orbit number at epoch: 8793

The dashed part of the orbit path shows where the satellite is in the earth's shadow,  

DLR